Location: Gleizolles
(44.4833°N, 6.7667°E)
Time: 21:58:08
(UTC+00:00)

Explorer 7 - Pass Details

Date: 18 June 2024
Orbit: 465 x 619 km, 50.3° (Epoch: 19 July)

Event Time Altitude Azimuth Distance (km) Brightness Sun altitude
Rises 15:43:31 0° 293° (WNW) 2,538 11.0 35.6°
Reaches altitude 10° 15:45:49 10° 302° (WNW) 1,642 10.2 35.2°
Maximum altitude 15:49:17 38° 12° (NNE) 728 7.7 34.6°
Drops below altitude 10° 15:52:42 10° 82° (E) 1,616 8.8 34.0°
Sets 15:54:57 0° 91° (E) 2,493 9.7 33.6°
